Location: ?????
(32.7281°N, 34.9563°E)
Time: 16:40:34
(UTC+00:00)

CZ-4B R/B - Pass Details

Date: 08 March 2021
Orbit: 388 x 454 km, 97.6° (Epoch: 18 April)

Event Time Altitude Azimuth Distance (km) Brightness Sun altitude
Rises 16:34:32 0° 349° (N) 2,307 5.2 -11.7°
Reaches altitude 10° 16:37:06 10° 325° (NW) 1,456 4.5 -12.2°
Maximum altitude 16:38:56 15° 288° (WNW) 1,207 4.7 -12.6°
Drops below altitude 10° 16:40:43 10° 253° (WSW) 1,456 5.2 -13.0°
Sets 16:43:23 0° 228° (SW) 2,342 5.8 -13.5°
